Location: C�gliari
(39.2170°N, 9.1170°E)
Time: 13:18:06
(UTC+02:00)

ISS - Visible Passes

Search period start: 11 May 2021 00:00
Search period end: 21 May 2021 00:00
Orbit: 417 x 422 km, 51.6° (Epoch: 11 May)

Date Brightness Start Highest point End Pass type
(mag) Time Alt. Az. Time Alt. Az. Time Alt. Az.
11 May -0.2 02:04:20 11° N 02:04:20 11° N 02:04:40 10° NNE visible
11 May -0.4 03:40:10 10° N 03:40:57 11° N 03:41:43 10° NNE visible
11 May -1.2 05:15:55 10° NNW 05:18:44 24° NNE 05:21:32 10° E visible
12 May -0.3 02:52:55 10° N 02:53:12 10° N 02:53:30 10° N visible
12 May -0.8 04:28:43 10° NNW 04:31:07 18° NNE 04:33:30 10° ENE visible
13 May -0.2 02:05:02 10° NNW 02:05:28 10° N 02:06:03 10° N visible
13 May -0.5 03:41:33 10° NNW 03:43:27 14° NNE 03:45:21 10° NE visible
13 May -2.9 05:17:32 10° NW 05:20:52 54° NE 05:24:11 10° ESE visible
14 May -0.2 01:18:39 10° N 01:18:39 10° N 01:18:54 10° N visible
14 May -0.3 02:54:24 10° NNW 02:55:46 12° NNE 02:57:06 10° NE visible
14 May -2.0 04:30:14 10° NW 04:33:22 34° NNE 04:36:29 10° E visible
14 May -2.3 21:13:37 10° S 21:15:59 18° SE 21:18:21 10° E visible
14 May -2.7 22:49:18 10° WSW 22:52:32 46° NW 22:55:36 11° NE visible
15 May -0.4 00:28:18 10° NW 00:30:01 13° NNW 00:31:44 10° NNE visible
15 May -0.2 02:07:15 10° N 02:08:02 11° N 02:08:48 10° NNE visible
15 May -1.3 03:42:59 10° NNW 03:45:48 24° NNE 03:48:37 10° E visible
15 May -3.5 05:19:30 10° WNW 05:22:45 47° SW 05:26:01 10° SSE visible
15 May -3.7 22:01:44 10° SW 22:05:04 79° NW 22:08:27 10° NE visible
15 May -0.7 23:40:07 10° WNW 23:42:20 16° NNW 23:44:35 10° NNE visible
16 May -0.1 01:20:01 10° N 01:20:17 10° N 01:20:33 10° N visible
16 May -0.8 02:55:47 10° NNW 02:58:11 18° NNE 03:00:35 10° ENE visible
16 May -3.9 04:31:59 10° NW 04:35:22 86° SW 04:38:44 10° SE visible
16 May -3.7 21:14:23 10° SW 21:17:41 57° SE 21:20:59 10° ENE visible
16 May -1.1 22:52:02 10° WNW 22:54:42 21° NNW 22:57:23 10° NNE visible
17 May -0.1 00:31:58 10° NNW 00:32:32 10° N 00:33:06 10° N visible
17 May -0.5 02:08:37 10° NNW 02:10:31 14° NNE 02:12:26 10° NE visible
17 May -3.1 03:45:03 13° NW 03:47:56 55° NE 03:51:15 10° ESE visible
17 May -2.1 05:22:22 10° W 05:24:25 15° SW 05:26:28 10° SSW visible
17 May -1.7 22:04:07 10° W 22:07:08 30° NNW 22:10:09 10° NE visible
17 May -0.3 23:43:39 10° NNW 23:44:47 11° N 23:45:56 10° N visible
18 May -0.3 01:21:28 10° NNW 01:22:49 12° NNE 01:22:58 12° NNE visible
18 May -2.5 21:16:21 10° WSW 21:19:36 46° NNW 21:22:52 10° NE visible
18 May -0.5 22:55:22 10° NW 22:57:04 13° NNW 22:58:47 10° NNE visible
19 May -0.3 00:34:19 10° N 00:35:05 11° N 00:35:51 10° NNE visible
19 May -0.7 22:07:11 10° WNW 22:09:24 16° NNW 22:11:36 10° NNE visible
19 May -0.2 23:47:07 10° N 23:47:21 10° N 23:47:34 10° N visible
20 May -0.4 01:22:50 10° NNW 01:23:19 12° NNW 01:23:19 12° NNW visible
20 May -1.0 21:19:06 10° WNW 21:21:45 21° NNW 21:24:25 10° NNE visible
20 May -0.3 22:59:03 10° NNW 22:59:35 10° N 23:00:07 10° N visible
